{"data":{"norad_id":59757,"intl_designator":"2024-091E","name":"STARLINK-11114 [DTC]","alt_names":[],"object_type":"PAYLOAD","status":"ACTIVE","operator":null,"country":"US","launch_date":"2024-05-14","launch_site_code":"AFWTR","launch_vehicle":null,"mission":null,"orbit_class":"UNKNOWN","rcs_meters":null,"size_class":null,"mass_kg":null,"dimensions":null,"purposes":["comms"],"wikipedia_slug":null,"has_3d_model":false,"image_url":null,"decayed_at":null,"tle_current":{"epoch":"2026-09-21T10:05:05.741376Z","epoch_age_seconds":91805,"freshness":"FRESH","line1":"1 59757U 24091E   26264.42020534 -.00006445  00000+0 -48310-4 0  9999","line2":"2 59757  53.1581 321.5084 0001146  65.9361 294.1777 15.69743211136256","mean_motion":15.69743211,"eccentricity":0.0001146,"inclination_deg":53.1581,"raan_deg":321.5084,"arg_perigee_deg":65.9361,"mean_anomaly_deg":294.1777,"bstar":-4.831e-5,"rev_number":13625,"period_min":91.734749346847,"perigee_km":358.85956663113,"apogee_km":360.40386322059,"semimajor_km":6737.7687149259,"source":"CELESTRAK","updated_at":"2026-09-22T09:00:49.067513Z"}}}